This is the latest recevied weather packets stored in our database for station/object W8DRH-13. If no packets are shown the sender has not sent any weather packets the latest 10 day(s).
| Time | Temp. | Humidity | Pressure | Rain* | Wind** | Luminosity | Snow |
|---|---|---|---|---|---|---|---|
| 1778066834 | 5.56° C | 99% | 1006.8 hPa | 0 mm | - | 26 W/m² | - |
| 1778066532 | 5.56° C | 99% | 1006.7 hPa | 0 mm | - | 29 W/m² | - |
| 1778066229 | 5.56° C | 99% | 1006.7 hPa | 0 mm | - | 17 W/m² | - |
| 1778065927 | 5.56° C | 99% | 1006.9 hPa | 0 mm | - | 10 W/m² | - |
| 1778065623 | 5.56° C | 99% | 1006.9 hPa | 0 mm | - | 11 W/m² | - |
| 1778065321 | 5.56° C | 99% | 1007.1 hPa | 0 mm | - | 6 W/m² | - |
| 1778065017 | 5.56° C | 99% | 1007.2 hPa | 0 mm | - | 2 W/m² | - |
| 1778064714 | 5.56° C | 99% | 1007.2 hPa | 0 mm | - | 0 W/m² | - |
| 1778064412 | 5° C | 99% | 1006.6 hPa | 0 mm | - | 1 W/m² | - |
| 1778064110 | 5.56° C | 99% | 1006.3 hPa | 0 mm | - | 1 W/m² | - |
| 1778063807 | 5.56° C | 99% | 1006.2 hPa | 0 mm | - | 0 W/m² | - |
| 1778063504 | 5.56° C | 99% | 1006 hPa | 0 mm | - | 0 W/m² | - |
| 1778063202 | 5.56° C | 99% | 1006.3 hPa | 0 mm | - | 0 W/m² | - |
| 1778062899 | 5.56° C | 99% | 1006.6 hPa | 0 mm | - | 0 W/m² | - |
| 1778062596 | 5.56° C | 99% | 1006.5 hPa | 0 mm | - | 0 W/m² | - |
| 1778062292 | 6.11° C | 99% | 1006.4 hPa | 0 mm | - | 0 W/m² | - |
| 1778061991 | 6.11° C | 99% | 1006.1 hPa | 0 mm | - | 0 W/m² | - |
| 1778061689 | 6.67° C | 99% | 1006 hPa | 0 mm | - | 0 W/m² | - |
| 1778061387 | 6.67° C | 99% | 1005.8 hPa | 0 mm | - | 0 W/m² | - |
| 1778061083 | 7.22° C | 99% | 1005.6 hPa | 0 mm | - | 0 W/m² | - |
| 1778060781 | 7.22° C | 99% | 1005.6 hPa | 0 mm | - | 0 W/m² | - |
| 1778060478 | 7.22° C | 99% | 1005.9 hPa | 0 mm | - | 0 W/m² | - |
| 1778060177 | 7.22° C | 99% | 1005.8 hPa | 0 mm | - | 0 W/m² | - |
| 1778059874 | 7.22° C | 99% | 1005.6 hPa | 0 mm | - | 0 W/m² | - |
| 1778059572 | 7.22° C | 99% | 1005.4 hPa | 0 mm | - | 0 W/m² | - |
* Rain latest hour (hover to see other rain measurements)
** Current wind speed in m/s (hover to see current wind gust speed)